.
WxDataArchive / Data Records for 2008-11-23
2008-11-22 November 2008 2008-11-24

Data Records for Sunday, 23 November 2008

Time	Temp	Chill	HIndex	Humid	Dewpt	 Wind 	HiWind	WindDir	Rain 	Barom 
-----	----	-----	------	-----	-----	------	------	-------	-----	----- 
00:00	15.7	15.7	15.7	86	12.3	0	0	---	0.00	30.424 
00:05	15.6	15.6	15.6	86	12.2	0	0	---	0.00	30.424 
00:10	15.4	15.4	15.4	86	12.0	0	0	---	0.00	30.421 
00:15	15.2	15.2	15.2	86	11.8	0	0	---	0.00	30.422 
00:20	15.2	15.2	15.2	86	11.8	0	0	---	0.00	30.422 
00:25	15.1	15.1	15.1	86	11.7	0	0	---	0.00	30.425 
00:30	15.1	15.1	15.1	86	11.7	0	0	---	0.00	30.426 
00:35	14.9	14.9	14.9	86	11.5	0	0	---	0.00	30.427 
00:40	14.8	14.8	14.8	86	11.4	0	0	---	0.00	30.424 
00:45	14.8	14.8	14.8	86	11.4	0	0	---	0.00	30.427 
00:50	14.6	14.6	14.6	86	11.2	0	0	---	0.00	30.429 
00:55	14.6	14.6	14.6	87	11.4	0	0	---	0.00	30.431 
01:00	14.6	14.6	14.6	87	11.4	0	0	---	0.00	30.426 
01:05	14.4	14.4	14.4	86	11.0	0	0	---	0.00	30.422 
01:10	14.3	14.3	14.3	87	11.2	0	0	---	0.00	30.420 
01:15	14.3	14.3	14.3	87	11.2	0	0	---	0.00	30.413 
01:20	14.1	14.1	14.1	87	11.0	0	0	---	0.00	30.412 
01:25	14.1	14.1	14.1	87	11.0	0	0	---	0.00	30.407 
01:30	14.0	14.0	14.0	87	10.9	0	0	---	0.00	30.406 
01:35	14.0	14.0	14.0	87	10.9	0	0	---	0.00	30.407 
01:40	14.0	14.0	14.0	87	10.9	0	0	---	0.00	30.408 
01:45	13.8	13.8	13.8	87	10.7	0	0	---	0.00	30.407 
01:50	13.8	13.8	13.8	87	10.7	0	0	---	0.00	30.409 
01:55	13.6	13.6	13.6	87	10.5	0	0	---	0.00	30.406 
02:00	13.5	13.5	13.5	87	10.4	0	0	---	0.00	30.406 
02:05	13.3	13.3	13.3	87	10.2	0	0	---	0.00	30.405 
02:10	13.1	13.1	13.1	87	10.0	0	0	---	0.00	30.404 
02:15	12.9	12.9	12.9	86	9.5	0	0	---	0.00	30.404 
02:20	12.9	12.9	12.9	87	9.8	0	0	---	0.00	30.393 
02:25	12.9	12.9	12.9	87	9.8	0	0	---	0.00	30.396 
02:30	12.9	12.9	12.9	87	9.8	0	0	---	0.00	30.393 
02:35	12.9	12.9	12.9	87	9.8	0	0	---	0.00	30.392 
02:40	12.8	12.8	12.8	87	9.7	0	0	---	0.00	30.394 
02:45	12.8	12.8	12.8	87	9.7	0	0	---	0.00	30.397 
02:50	12.8	12.8	12.8	87	9.7	0	0	---	0.00	30.395 
02:55	12.6	12.6	12.6	87	9.5	0	0	---	0.00	30.395 
03:00	12.6	12.6	12.6	87	9.5	0	0	---	0.00	30.393 
03:05	12.4	12.4	12.4	87	9.3	0	0	---	0.00	30.396 
03:10	12.4	12.4	12.4	87	9.3	0	0	---	0.00	30.395 
03:15	12.3	12.3	12.3	87	9.2	0	0	---	0.00	30.394 
03:20	12.1	12.1	12.1	87	9.0	0	0	---	0.00	30.394 
03:25	12.1	12.1	12.1	87	9.0	0	0	---	0.00	30.394 
03:30	12.1	12.1	12.1	87	9.0	0	0	---	0.00	30.390 
03:35	12.1	12.1	12.1	87	9.0	0	0	---	0.00	30.392 
03:40	12.1	12.1	12.1	87	9.0	0	0	---	0.00	30.392 
03:45	11.9	11.9	11.9	87	8.8	0	0	---	0.00	30.387 
03:50	11.9	11.9	11.9	87	8.8	0	0	---	0.00	30.388 
03:55	11.9	11.9	11.9	87	8.8	0	0	---	0.00	30.387 
04:00	11.9	11.9	11.9	87	8.8	0	0	---	0.00	30.388 
04:05	11.9	11.9	11.9	87	8.8	0	0	---	0.00	30.391 
04:10	11.9	11.9	11.9	87	8.8	0	0	---	0.00	30.390 
04:15	11.9	11.9	11.9	87	8.8	0	0	---	0.00	30.388 
04:20	11.9	11.9	11.9	87	8.8	0	0	---	0.00	30.388 
04:25	11.9	11.9	11.9	87	8.8	0	0	---	0.00	30.389 
04:30	11.9	11.9	11.9	87	8.8	0	0	---	0.00	30.394 
04:35	11.9	11.9	11.9	87	8.8	0	0	---	0.00	30.394 
04:40	11.9	11.9	11.9	87	8.8	0	0	---	0.00	30.394 
04:45	11.9	11.9	11.9	87	8.8	0	0	---	0.00	30.394 
04:50	11.9	11.9	11.9	87	8.8	0	0	---	0.00	30.393 
04:55	12.1	12.1	12.1	87	9.0	0	0	---	0.00	30.394 
05:00	12.1	12.1	12.1	88	9.2	0	0	---	0.00	30.394 
05:05	12.1	12.1	12.1	87	9.0	0	0	---	0.00	30.397 
05:10	12.1	12.1	12.1	87	9.0	0	0	---	0.00	30.398 
05:15	12.1	12.1	12.1	87	9.0	0	0	---	0.00	30.396 
05:20	12.1	12.1	12.1	87	9.0	0	0	---	0.00	30.397 
05:25	12.1	12.1	12.1	87	9.0	0	0	---	0.00	30.397 
05:30	12.1	12.1	12.1	87	9.0	0	0	---	0.00	30.396 
05:35	12.1	12.1	12.1	87	9.0	0	0	---	0.00	30.394 
05:40	11.9	11.9	11.9	87	8.8	0	0	---	0.00	30.393 
05:45	11.9	11.9	11.9	87	8.8	0	0	---	0.00	30.394 
05:50	11.9	11.9	11.9	87	8.8	0	0	---	0.00	30.394 
05:55	11.9	11.9	11.9	87	8.8	0	0	---	0.00	30.387 
06:00	11.9	11.9	11.9	87	8.8	0	0	---	0.00	30.384 
06:05	11.9	11.9	11.9	87	8.8	0	0	---	0.00	30.385 
06:10	11.9	11.9	11.9	87	8.8	0	0	---	0.00	30.384 
06:15	11.9	11.9	11.9	87	8.8	0	0	---	0.00	30.383 
06:20	11.7	11.7	11.7	87	8.6	0	0	---	0.00	30.383 
06:25	11.7	11.7	11.7	87	8.6	0	0	---	0.00	30.382 
06:30	11.7	11.7	11.7	87	8.6	0	0	---	0.00	30.379 
06:35	11.7	11.7	11.7	86	8.3	0	0	---	0.00	30.379 
06:40	11.7	11.7	11.7	86	8.3	0	0	---	0.00	30.378 
06:45	11.7	11.7	11.7	86	8.3	0	0	---	0.00	30.374 
06:50	11.6	11.6	11.6	86	8.2	0	0	---	0.00	30.372 
06:55	11.6	11.6	11.6	86	8.2	0	0	---	0.00	30.371 
07:00	11.6	11.6	11.6	86	8.2	0	0	---	0.00	30.370 
07:05	11.6	11.6	11.6	86	8.2	0	0	---	0.00	30.371 
07:10	11.7	11.7	11.7	87	8.6	0	0	---	0.00	30.372 
07:15	11.9	11.9	11.9	87	8.8	0	0	---	0.00	30.379 
07:20	11.9	11.9	11.9	87	8.8	0	0	---	0.00	30.384 
07:25	11.9	11.9	11.9	87	8.8	0	0	---	0.00	30.381 
07:30	11.9	11.9	11.9	87	8.8	0	0	---	0.00	30.382 
07:35	11.9	11.9	11.9	87	8.8	0	0	---	0.00	30.384 
07:40	11.9	11.9	11.9	87	8.8	0	0	---	0.00	30.384 
07:45	11.9	11.9	11.9	86	8.5	0	0	---	0.00	30.383 
07:50	11.9	11.9	11.9	87	8.8	0	0	---	0.00	30.381 
07:55	11.9	11.9	11.9	87	8.8	0	0	---	0.00	30.380 
08:00	12.1	12.1	12.1	87	9.0	0	0	---	0.00	30.375 
08:05	12.4	12.4	12.4	87	9.3	0	0	---	0.00	30.375 
08:10	12.8	12.8	12.8	87	9.7	0	0	---	0.00	30.372 
08:15	13.6	13.6	13.6	88	10.7	0	0	---	0.00	30.370 
08:20	14.8	14.8	14.8	89	12.2	0	1	248	0.00	30.370 
08:25	15.9	15.9	15.9	89	13.2	0	0	---	0.00	30.367 
08:30	16.5	16.5	16.5	89	13.8	0	0	---	0.00	30.364 
08:35	17.3	17.3	17.3	89	14.6	0	1	248	0.00	30.361 
08:40	18.0	18.0	18.0	88	15.1	0	1	248	0.00	30.360 
08:45	18.6	18.6	18.6	88	15.6	0	1	248	0.00	30.356 
08:50	19.2	19.2	19.2	87	16.0	0	2	248	0.00	30.350 
08:55	19.7	19.7	19.7	86	16.2	0	2	112	0.00	30.350 
09:00	20.3	20.3	20.3	85	16.5	0	1	112	0.00	30.348 
09:05	20.8	20.8	20.8	84	16.7	0	2	135	0.00	30.347 
09:10	21.6	21.6	21.6	84	17.5	0	2	135	0.00	30.346 
09:15	22.4	22.4	22.4	83	18.0	0	1	135	0.00	30.347 
09:20	23.3	23.3	23.3	81	18.3	0	1	135	0.00	30.345 
09:25	23.9	23.9	23.9	79	18.4	0	2	135	0.00	30.345 
09:30	24.5	24.5	24.5	78	18.6	0	2	135	0.00	30.346 
09:35	24.8	24.8	24.8	75	18.0	1	5	248	0.00	30.345 
09:40	25.3	25.3	25.3	73	17.9	1	4	248	0.00	30.344 
09:45	25.6	25.6	25.6	72	17.8	1	2	248	0.00	30.336 
09:50	26.0	26.0	26.0	72	18.2	0	1	248	0.00	30.334 
09:55	26.4	26.4	26.4	72	18.6	0	1	248	0.00	30.334 
10:00	26.7	26.7	26.7	69	17.9	1	2	248	0.00	30.330 
10:05	27.0	27.0	27.0	67	17.5	1	3	248	0.00	30.335 
10:10	27.5	27.5	27.5	67	18.0	0	3	248	0.00	30.331 
10:15	27.8	27.8	27.8	66	17.9	1	3	225	0.00	30.329 
10:20	28.2	28.2	28.2	65	18.0	1	4	248	0.00	30.331 
10:25	28.7	28.7	28.7	64	18.1	1	4	248	0.00	30.332 
10:30	29.0	29.0	29.0	63	18.0	1	4	248	0.00	30.330 
10:35	29.5	29.5	29.5	63	18.5	1	4	248	0.00	30.328 
10:40	30.0	30.0	30.0	63	19.0	0	4	248	0.00	30.326 
10:45	30.3	30.3	30.3	62	18.9	1	3	248	0.00	30.325 
10:50	30.7	30.7	30.7	59	18.1	2	6	248	0.00	30.326 
10:55	30.9	30.9	30.9	58	17.9	2	4	248	0.00	30.326 
11:00	31.3	31.3	31.3	59	18.7	1	5	248	0.00	30.330 
11:05	31.8	31.8	31.8	59	19.1	1	5	248	0.00	30.327 
11:10	32.1	32.1	32.1	58	19.0	1	4	248	0.00	30.325 
11:15	32.5	32.5	32.5	58	19.4	1	5	248	0.00	30.331 
11:20	32.8	32.8	32.8	55	18.4	2	7	248	0.00	30.334 
11:25	32.8	32.8	32.8	54	18.0	3	9	248	0.00	30.336 
11:30	32.9	32.9	32.9	54	18.1	2	5	248	0.00	30.335 
11:35	33.2	33.2	33.2	54	18.4	2	5	248	0.00	30.328 
11:40	33.4	33.4	33.4	53	18.1	1	4	248	0.00	30.325 
11:45	33.5	33.5	33.5	53	18.2	1	5	248	0.00	30.324 
11:50	33.5	33.5	33.5	51	17.3	2	9	248	0.00	30.320 
11:55	33.7	33.7	33.7	51	17.5	2	8	248	0.00	30.316 
12:00	33.8	33.8	33.8	52	18.1	2	7	248	0.00	30.314 
12:05	34.3	34.3	34.3	51	18.1	2	9	248	0.00	30.318 
12:10	34.6	34.6	34.6	51	18.4	2	6	248	0.00	30.316 
12:15	34.9	34.9	34.9	53	19.5	1	5	248	0.00	30.309 
12:20	35.2	35.2	35.2	52	19.4	1	5	270	0.00	30.305 
12:25	35.3	35.3	35.3	51	19.0	3	9	248	0.00	30.302 
12:30	35.6	35.6	35.6	52	19.7	2	6	248	0.00	30.299 
12:35	36.0	36.0	36.0	50	19.2	3	6	248	0.00	30.297 
12:40	36.2	36.2	36.2	50	19.4	2	8	248	0.00	30.291 
12:45	36.5	36.5	36.5	50	19.6	2	5	248	0.00	30.287 
12:50	36.6	36.6	36.6	50	19.7	1	5	248	0.00	30.286 
12:55	36.8	36.8	36.8	50	19.9	2	5	248	0.00	30.284 
13:00	37.0	37.0	37.0	49	19.6	1	4	248	0.00	30.277 
13:05	37.0	37.0	37.0	49	19.6	2	5	248	0.00	30.274 
13:10	37.2	37.2	37.2	48	19.3	2	9	248	0.00	30.272 
13:15	37.2	37.2	37.2	50	20.3	1	5	90	0.00	30.266 
13:20	37.5	37.5	37.5	50	20.6	1	5	338	0.00	30.264 
13:25	37.6	37.6	37.6	49	20.2	2	7	248	0.00	30.258 
13:30	37.6	37.6	37.6	48	19.7	3	8	248	0.00	30.255 
13:35	37.5	37.5	37.5	48	19.6	3	6	248	0.00	30.255 
13:40	37.8	37.8	37.8	48	19.9	2	9	248	0.00	30.253 
13:45	37.9	37.9	37.9	47	19.5	3	10	248	0.00	30.251 
13:50	37.9	37.9	37.9	46	19.0	3	9	248	0.00	30.253 
13:55	37.9	37.9	37.9	47	19.5	2	5	248	0.00	30.250 
14:00	38.2	38.2	38.2	47	19.8	2	7	248	0.00	30.245 
14:05	38.3	38.3	38.3	45	18.8	2	5	248	0.00	30.244 
14:10	38.3	38.3	38.3	46	19.4	2	6	248	0.00	30.242 
14:15	38.3	38.3	38.3	46	19.4	2	6	248	0.00	30.241 
14:20	38.3	38.3	38.3	46	19.4	2	6	248	0.00	30.242 
14:25	38.5	38.5	38.5	46	19.5	2	7	248	0.00	30.240 
14:30	38.8	38.8	38.8	47	20.3	2	6	248	0.00	30.235 
14:35	39.2	39.2	39.2	47	20.7	1	6	248	0.00	30.234 
14:40	39.6	39.6	39.6	45	20.0	1	5	270	0.00	30.225 
14:45	39.9	39.9	39.9	43	19.2	1	6	248	0.00	30.221 
14:50	39.9	39.9	39.9	43	19.2	1	4	270	0.00	30.218 
14:55	39.8	39.8	39.8	44	19.7	2	7	248	0.00	30.217 
15:00	39.5	39.5	39.5	44	19.4	2	5	248	0.00	30.215 
15:05	39.6	39.6	39.6	43	19.0	1	4	248	0.00	30.215 
15:10	40.1	40.1	40.1	44	20.0	1	6	248	0.00	30.217 
15:15	40.3	40.3	40.3	43	19.6	1	6	248	0.00	30.216 
15:20	40.3	40.3	40.3	43	19.6	1	3	248	0.00	30.213 
15:25	40.3	40.3	40.3	43	19.6	1	4	248	0.00	30.215 
15:30	40.2	40.2	40.2	42	19.0	2	10	248	0.00	30.215 
15:35	40.2	40.2	40.2	42	19.0	3	6	248	0.00	30.212 
15:40	40.5	40.5	40.5	42	19.2	1	5	248	0.00	30.214 
15:45	40.5	40.5	40.5	42	19.2	2	6	248	0.00	30.219 
15:50	40.3	40.3	40.3	42	19.1	1	5	248	0.00	30.213 
15:55	40.1	40.1	40.1	43	19.4	0	3	248	0.00	30.211 
16:00	39.8	39.8	39.8	44	19.7	1	3	270	0.00	30.210 
16:05	39.6	39.6	39.6	44	19.5	1	3	248	0.00	30.210 
16:10	39.5	39.5	39.5	44	19.4	1	3	248	0.00	30.208 
16:15	39.2	39.2	39.2	44	19.1	1	3	248	0.00	30.209 
16:20	39.2	39.2	39.2	44	19.1	0	2	248	0.00	30.209 
16:25	39.1	39.1	39.1	45	19.6	0	2	248	0.00	30.207 
16:30	38.9	38.9	38.9	44	18.9	0	4	248	0.00	30.209 
16:35	38.9	38.9	38.9	44	18.9	0	3	248	0.00	30.210 
16:40	38.9	38.9	38.9	44	18.9	1	4	248	0.00	30.210 
16:45	38.8	38.8	38.8	44	18.8	0	1	248	0.00	30.207 
16:50	38.8	38.8	38.8	45	19.3	0	2	248	0.00	30.205 
16:55	38.6	38.6	38.6	46	19.6	0	1	248	0.00	30.205 
17:00	38.5	38.5	38.5	47	20.0	0	0	---	0.00	30.203 
17:05	38.2	38.2	38.2	46	19.3	0	0	---	0.00	30.205 
17:10	38.0	38.0	38.0	47	19.6	0	0	---	0.00	30.201 
17:15	37.8	37.8	37.8	48	19.9	0	1	248	0.00	30.201 
17:20	37.5	37.5	37.5	48	19.6	0	1	248	0.00	30.202 
17:25	37.2	37.2	37.2	48	19.3	0	1	248	0.00	30.205 
17:30	36.9	36.9	36.9	49	19.5	0	0	---	0.00	30.207 
17:35	36.5	36.5	36.5	50	19.6	0	0	---	0.00	30.210 
17:40	36.0	36.0	36.0	50	19.2	0	2	248	0.00	30.210 
17:45	36.0	36.0	36.0	50	19.2	0	2	248	0.00	30.207 
17:50	35.9	35.9	35.9	50	19.1	0	0	---	0.00	30.207 
17:55	35.6	35.6	35.6	51	19.3	0	0	---	0.00	30.207 
18:00	35.5	35.5	35.5	51	19.2	0	0	---	0.00	30.205 
18:05	35.2	35.2	35.2	51	18.9	0	0	---	0.00	30.206 
18:10	34.9	34.9	34.9	52	19.1	0	0	---	0.00	30.206 
18:15	34.7	34.7	34.7	52	18.9	0	0	---	0.00	30.203 
18:20	34.6	34.6	34.6	53	19.2	0	0	---	0.00	30.201 
18:25	34.3	34.3	34.3	53	19.0	0	0	---	0.00	30.203 
18:30	34.1	34.1	34.1	53	18.8	0	0	---	0.00	30.206 
18:35	33.8	33.8	33.8	55	19.4	0	0	---	0.00	30.205 
18:40	33.5	33.5	33.5	55	19.1	0	0	---	0.00	30.206 
18:45	33.2	33.2	33.2	57	19.6	0	0	---	0.00	30.202 
18:50	32.9	32.9	32.9	57	19.4	0	0	---	0.00	30.201 
18:55	32.8	32.8	32.8	57	19.3	0	0	---	0.00	30.200 
19:00	32.7	32.7	32.7	58	19.6	0	0	---	0.00	30.200 
19:05	32.7	32.7	32.7	58	19.6	0	0	---	0.00	30.200 
19:10	32.7	32.7	32.7	58	19.6	0	0	---	0.00	30.200 
19:15	32.7	32.7	32.7	58	19.6	0	0	---	0.00	30.203 
19:20	32.7	32.7	32.7	57	19.2	0	0	---	0.00	30.207 
19:25	32.7	32.7	32.7	57	19.2	0	0	---	0.00	30.209 
19:30	32.5	32.5	32.5	57	19.0	0	1	248	0.00	30.206 
19:35	32.4	32.4	32.4	58	19.3	0	0	---	0.00	30.206 
19:40	32.2	32.2	32.2	58	19.1	0	0	---	0.00	30.205 
19:45	31.9	31.9	31.9	59	19.2	0	0	---	0.00	30.200 
19:50	31.6	31.6	31.6	59	18.9	0	0	---	0.00	30.200 
19:55	31.5	31.5	31.5	59	18.8	0	0	---	0.00	30.200 
20:00	31.2	31.2	31.2	59	18.6	0	0	---	0.00	30.203 
20:05	30.9	30.9	30.9	60	18.7	0	0	---	0.00	30.195 
20:10	30.7	30.7	30.7	61	18.9	0	0	---	0.00	30.193 
20:15	30.7	30.7	30.7	61	18.9	0	0	---	0.00	30.191 
20:20	30.6	30.6	30.6	62	19.2	0	0	---	0.00	30.189 
20:25	30.7	30.7	30.7	62	19.2	0	0	---	0.00	30.184 
20:30	31.2	31.2	31.2	61	19.3	0	1	248	0.00	30.183 
20:35	31.5	31.5	31.5	60	19.2	0	0	---	0.00	30.185 
20:40	31.8	31.8	31.8	59	19.1	0	0	---	0.00	30.185 
20:45	31.8	31.8	31.8	59	19.1	0	1	248	0.00	30.182 
20:50	31.6	31.6	31.6	59	18.9	0	0	---	0.00	30.180 
20:55	31.5	31.5	31.5	59	18.8	0	0	---	0.00	30.176 
21:00	31.3	31.3	31.3	59	18.7	0	0	---	0.00	30.176 
21:05	31.2	31.2	31.2	60	19.0	0	0	---	0.00	30.164 
21:10	31.0	31.0	31.0	60	18.8	0	0	---	0.00	30.162 
21:15	31.0	31.0	31.0	60	18.8	0	0	---	0.00	30.158 
21:20	31.2	31.2	31.2	60	19.0	0	1	248	0.00	30.159 
21:25	31.5	31.5	31.5	60	19.2	0	1	248	0.00	30.160 
21:30	31.6	31.6	31.6	59	18.9	0	1	248	0.00	30.158 
21:35	32.1	32.1	32.1	58	19.0	0	2	248	0.00	30.157 
21:40	32.4	32.4	32.4	58	19.3	0	2	248	0.00	30.155 
21:45	32.7	32.7	32.7	58	19.6	0	3	248	0.00	30.152 
21:50	32.9	32.9	32.9	57	19.4	0	3	248	0.00	30.152 
21:55	33.1	33.1	33.1	57	19.5	0	2	248	0.00	30.150 
22:00	33.1	33.1	33.1	57	19.5	0	2	248	0.00	30.147 
22:05	33.2	33.2	33.2	57	19.6	0	2	248	0.00	30.142 
22:10	33.2	33.2	33.2	57	19.6	0	2	248	0.00	30.138 
22:15	33.4	33.4	33.4	57	19.8	0	2	248	0.00	30.136 
22:20	33.5	33.5	33.5	57	19.9	0	2	248	0.00	30.134 
22:25	33.5	33.5	33.5	57	19.9	0	1	248	0.00	30.131 
22:30	33.4	33.4	33.4	57	19.8	0	1	248	0.00	30.127 
22:35	33.2	33.2	33.2	58	20.0	0	0	---	0.00	30.125 
22:40	33.1	33.1	33.1	58	20.0	0	1	248	0.00	30.122 
22:45	33.1	33.1	33.1	58	20.0	0	0	---	0.00	30.120 
22:50	32.8	32.8	32.8	58	19.7	0	0	---	0.00	30.118 
22:55	32.7	32.7	32.7	59	20.0	0	1	248	0.00	30.117 
23:00	32.5	32.5	32.5	59	19.8	0	1	248	0.00	30.116 
23:05	32.2	32.2	32.2	59	19.5	0	0	---	0.00	30.111 
23:10	32.1	32.1	32.1	60	19.8	0	0	---	0.00	30.106 
23:15	31.8	31.8	31.8	60	19.5	0	0	---	0.00	30.105 
23:20	31.6	31.6	31.6	60	19.3	0	0	---	0.00	30.102 
23:25	31.3	31.3	31.3	61	19.4	0	0	---	0.00	30.104 
23:30	31.0	31.0	31.0	61	19.1	0	0	---	0.00	30.104 
23:35	30.9	30.9	30.9	62	19.4	0	0	---	0.00	30.102 
23:40	30.9	30.9	30.9	62	19.4	0	0	---	0.00	30.101 
23:45	30.9	30.9	30.9	62	19.4	0	0	---	0.00	30.098 
23:50	31.0	31.0	31.0	62	19.5	0	0	---	0.00	30.099 
23:55	30.9	30.9	30.9	62	19.4	0	0	---	0.00	30.097 

CoCoRaHS
IN-AL-39
A2 Web Hosting
Creative Commons License
GoDaddy
Look for:

loaded 2017-12-11 06:47:51 • last modified 2010-11-18 10:43:29
Privacy PolicyDisclaimer
• wx.awcolley.com is powered by PmWiki v.2002016 •
• all content (unless otherwise noted) © 2017 A W Colley